Location: Bistritz
(49.7318°N, 14.6672°E)
Time: 20:11:13
(UTC+00:00)

Daily predictions for brighter satellites

Satellite Brightness Start Highest point End
(mag) Time Altitude Azimuth Time Altitude Azimuth Time Altitude Azimuth
Okean 1-7 4.3 19:51:00 10° SE 19:54:29 24° E 19:58:00 10° NE
Cosmos 2219 Rocket 2.4 19:50:19 10° NNW 19:56:01 69° ENE 20:01:40 10° SE
Cosmos 1707 Rocket 3.7 19:52:13 10° S 19:56:34 58° E 20:00:55 10° NNE
RESURS DK-1 4.0 19:53:52 10° NW 19:57:24 29° WSW 20:00:55 10° S
Resurs 01 Rocket 4.1 19:59:00 10° SW 20:02:08 19° W 20:05:18 10° NW
Ariane Rocket 3.1 19:57:23 10° SSE 20:02:25 66° ENE 20:07:29 10° N
ATLAS CENTAUR R/B 1.6 20:00:47 10° SW 20:04:16 61° NW 20:07:53 10° NE
SeaSat 1 2.5 20:02:18 10° SE 20:07:13 80° ENE 20:12:09 10° NNW
COSMOS 2455 4.2 20:04:30 10° SSE 20:08:39 20° ESE 20:12:50 10° ENE
Cosmos 1400 Rocket 3.7 20:05:31 10° SSW 20:09:15 49° WNW 20:12:58 10° N
OPS 8737 4.4 20:08:44 10° NW 20:11:37 56° SW 20:14:38 10° SSE
Cosmos 1733 Rocket 3.2 20:07:31 10° NNW 20:11:58 82° W 20:16:23 10° S
Cosmos 2315 Rocket 4.2 20:05:53 10° NNW 20:12:17 79° W 20:18:39 10° S
COSMOS 2428 3.3 20:08:27 10° NNW 20:14:00 49° NE 20:19:31 10° SE
Landsat 5 4.4 20:12:41 10° NE 20:16:19 29° E 20:20:00 10° SSE
Meteor 1-4 Rocket 2.3 20:14:54 10° S 20:17:48 51° E 20:20:46 10° NNE
Cosmos 968 Rocket 3.5 20:13:41 10° SSW 20:18:50 89° W 20:24:06 10° NNE
Cosmos 2360 Rocket 3.1 20:18:17 10° NW 20:23:39 44° WSW 20:28:58 10° S
Okean 3 3.4 20:19:37 10° S 20:23:46 74° E 20:27:58 10° NNE
Cosmos 1953 2.6 20:20:28 10° N 20:24:12 50° ENE 20:27:32 12° SSE
Cosmos 1300 3.8 20:24:02 10° NNW 20:27:20 37° W 20:30:38 10° SSW
USA 234 3.5 20:24:19 10° ENE 20:30:38 48° SE 20:36:54 10° SSW
Cosmos 1908 Rocket 3.8 20:26:26 10° N 20:30:42 54° ENE 20:34:25 13° SSE
CZ-4C R/B 3.1 20:29:19 12° SSE 20:32:19 21° ESE 20:36:12 10° ENE
Meteor 1-21 4.5 20:27:09 10° SSW 20:32:57 80° WNW 20:38:49 10° N
Cosmos 1315 Rocket 2.8 20:32:29 10° S 20:36:26 65° E 20:40:25 10° NNE
ARIANE 5 R/B 4.0 20:36:04 10° ESE 20:39:35 26° ENE 20:43:13 10° N
SL-16 R/B 4.5 20:37:01 10° WNW 20:40:36 17° W 20:44:11 10° SW
Cosmos 1570 Rocket 4.1 20:36:04 10° NNW 20:41:28 78° ENE 20:46:02 14° SSE
Cosmos 1241 Rocket 4.5 20:37:19 10° SW 20:43:31 90° WNW 20:49:50 10° NE
GP-B 3.9 20:40:47 10° NNE 20:44:52 35° E 20:48:00 15° SE
Cosmos 1346 Rocket 4.5 20:42:54 10° NNW 20:46:13 28° W 20:49:30 10° SSW
Okean 2 3.3 20:45:47 10° S 20:49:46 84° E 20:53:49 10° N
ERS-1 Rocket 4.3 20:46:59 10° SSW 20:51:35 35° W 20:56:12 10° NNW
Cosmos 2333 Rocket 3.7 20:48:59 10° NW 20:53:53 30° WSW 20:58:47 10° SSW
Nadezhda 1 Rocket 4.2 20:48:06 10° N 20:54:20 61° ENE 20:59:22 16° SSE
SPOT 3 Rocket 4.3 20:53:00 10° S 20:57:58 48° W 21:03:00 10° NNW
SL-16 R/B 4.2 20:53:59 10° N 20:58:16 21° NE 21:02:31 10° E
NOSS 0 Rocket 4.1 20:52:35 10° NNW 20:58:52 72° ENE 21:04:02 16° SE
Cosmos 1408 3.4 20:58:55 19° SE 21:00:03 24° E 21:02:34 10° NE
Cosmos 2237 Rocket 2.9 20:57:17 10° NNW 21:02:47 48° NE 21:07:33 13° SE
USA 281 3.7 20:58:25 12° SE 21:04:17 55° NE 21:10:42 10° NNW
Cosmos 1455 2.6 21:05:58 10° NNW 21:09:23 51° W 21:12:00 16° SSW
Cosmos 2227 Rocket 3.8 21:07:45 14° SE 21:10:06 18° E 21:13:44 10° ENE
SL-4 R/B 2.1 21:07:50 10° WNW 21:11:39 53° SSW 21:14:18 20° SE
Cosmos 1242 Rocket 2.0 21:10:13 17° SSW 21:12:08 69° WNW 21:14:52 10° N
Cosmos 2322 4.0 21:06:57 10° NW 21:12:32 58° WSW 21:16:49 17° S
SJ 16-02 2.9 21:08:55 10° SW 21:12:54 36° WNW 21:16:56 10° N
Cosmos 1703 Rocket 3.6 21:10:01 12° SSW 21:14:04 84° W 21:18:33 10° N
Cosmos 1980 4.0 21:11:11 10° NNW 21:16:51 62° ENE 21:21:13 17° SE
ATLAS 2AS CENTAUR R/B 4.2 21:14:18 10° WNW 21:19:20 23° WSW 21:24:17 10° SSW
Cosmos 2208 Rocket 4.1 21:16:09 10° NNW 21:21:19 68° WSW 21:24:57 19° S
BREEZE-M DEB (TANK) 4.0 21:22:34 10° WSW 21:24:28 19° SSW 21:24:44 19° SSW
NOSS 8 (H) 4.3 21:20:46 10° SSW 21:24:33 61° SE 21:27:35 10° NE
Cosmos 405 Rocket 3.9 21:22:24 10° N 21:25:46 30° ENE 21:27:50 18° ESE
ALOS 2 4.1 21:23:07 14° ESE 21:26:08 27° ENE 21:29:51 10° N
Cosmos 2084 Rocket 4.1 21:24:47 22° S 21:26:46 33° ESE 21:30:32 10° ENE
BlueWalker 3 1.9 21:24:56 10° WSW 21:28:41 80° NNW 21:32:27 10° ENE
Cosmos 2297 Rocket 2.6 21:25:19 19° S 21:29:01 44° ESE 21:34:21 10° NE
Terra 4.0 21:27:07 10° SW 21:30:20 18° W 21:33:36 10° NW
Okean 1-7 4.3 21:27:34 10° SW 21:31:36 37° WNW 21:35:38 10° N
Cosmos 371 Rocket 3.3 21:29:55 19° S 21:33:19 61° ESE 21:38:05 10° NNE
Cosmos 1825 4.2 21:32:40 12° ESE 21:33:34 13° E 21:35:07 10° ENE
Meteor 1-24 Rocket 4.2 21:30:36 20° SSE 21:34:10 44° E 21:39:25 10° NNE
Cosmos 2219 Rocket 3.9 21:35:06 10° NW 21:39:26 23° WSW 21:43:45 10° SSW
ATLAS CENTAUR R/B 4.5 21:40:37 10° WNW 21:42:40 14° NNW 21:44:45 10° N
SeaSat 1 4.4 21:41:50 10° SSW 21:45:10 18° WSW 21:48:32 10° WNW
Cosmos 1486 Rocket 3.9 21:42:26 14° SSW 21:46:53 88° ESE 21:52:08 10° NNE
Cosmos 1709 Rocket 4.0 21:44:10 19° S 21:48:56 79° E 21:55:17 10° NNE
Sich 1 Rocket 4.5 21:46:15 10° N 21:50:23 38° ENE 21:52:47 21° SE
Cosmos 2242 Rocket 3.6 21:49:17 22° S 21:52:14 89° W 21:56:50 10° N
COSMOS 2455 2.9 21:47:47 10° SW 21:53:49 87° WNW 21:59:55 10° NE
Cosmos 2263 Rocket 4.0 21:53:17 13° ESE 21:55:12 15° E 21:58:20 10° ENE
COSMOS 2428 3.8 21:53:01 10° NW 21:58:04 33° WSW 22:01:37 17° SSW
H-2A R/B 2.5 21:57:28 28° SSE 21:59:43 84° ENE 22:03:57 10° NNW
EXPRESS MD2 3.1 21:59:53 10° W 22:01:20 31° WSW 22:01:20 31° WSW
CENTAUR R/B 3.1 22:00:49 24° SSE 22:03:37 37° ESE 22:09:50 10° NE
Cosmos 1174 4.0 21:59:35 10° NW 22:04:31 70° WSW 22:06:26 30° SSE
Okean 1 Rocket 4.1 22:01:27 10° N 22:05:30 36° ENE 22:07:53 20° SE
Cosmos 1354 Rocket 4.1 22:02:28 23° S 22:05:42 64° ESE 22:10:58 10° NNE
Cosmos 1703 3.1 22:05:45 29° SSW 22:07:32 77° W 22:11:14 10° N
H-2A R/B 3.8 22:05:30 10° NE 22:08:22 18° E 22:09:44 15° ESE
Cosmos 304 Rocket 3.8 22:07:04 18° SSW 22:10:36 78° WNW 22:15:24 10° NNE
USA 234 3.5 22:07:21 10° ENE 22:13:53 73° NNW 22:20:24 10° WSW
Cosmos 2098 Rocket 4.0 22:08:48 10° N 22:15:26 83° W 22:19:20 24° S
ARIANE 5 R/B 3.5 22:13:31 22° SSW 22:15:48 39° W 22:19:55 10° NNW
Spot 2 4.5 22:14:42 26° SSE 22:17:37 80° ENE 22:22:36 10° NNW
CZ-4C R/B 2.2 22:15:15 10° SW 22:19:52 69° NW 22:25:46 10° NE
Meteor 2-5 Rocket 3.9 22:22:58 21° SSW 22:27:04 75° WNW 22:32:54 10° N
Spot 4 4.1 22:25:43 27° S 22:28:12 62° WSW 22:33:00 10° NNW
Cosmos 332 Rocket 3.8 22:25:57 27° S 22:28:35 72° ESE 22:33:28 10° NNE
Cosmos 990 Rocket 4.4 22:26:48 27° SSE 22:29:07 45° ESE 22:34:00 10° NE
BREEZE-M DEB (TANK) 4.0 22:33:22 10° W 22:36:59 80° SSW 22:49:28 10° ESE
Cosmos 1455 Rocket 4.3 22:33:47 10° N 22:37:52 34° ENE 22:40:27 19° SE
Cosmos 1025 Rocket 3.9 22:36:31 26° SE 22:38:15 37° E 22:42:13 10° NNE
Cosmos 1328 4.2 22:38:44 32° SE 22:40:03 47° E 22:43:48 10° NNE
PSLV R/B 3.7 22:36:50 10° NNE 22:40:58 55° E 22:42:37 33° SSE
SL-16 R/B 2.2 22:37:32 10° NNW 22:43:17 82° ENE 22:46:58 23° SSE
Cosmos 1378 Rocket 3.6 22:41:46 29° SSW 22:43:57 72° W 22:48:22 10° N
Cosmos 1674 Rocket 3.5 22:43:51 31° SSW 22:45:53 81° W 22:50:15 10° N
Cosmos 2237 Rocket 3.2 22:41:38 10° NW 22:46:41 34° WSW 22:49:21 22° SSW
USA 281 4.0 22:45:18 21° SSW 22:49:00 37° WSW 22:55:05 10° NW
SL-4 R/B 4.1 22:47:36 10° WSW 22:49:01 14° WSW 22:49:01 14° WSW
Cosmos 2151 Rocket 4.0 22:46:20 10° NNW 22:50:36 50° W 22:52:32 29° SSW
Aureole 1 Rocket 3.7 22:50:44 30° SE 22:51:59 39° ESE 22:56:24 10° NE
Cosmos 1943 4.4 22:47:33 10° NNW 22:52:48 38° NE 22:58:01 10° ESE
Cosmos 2227 Rocket 2.2 22:49:31 21° SSW 22:53:23 85° WNW 22:59:06 10° NNE
Cosmos 2082 4.3 22:52:12 26° SSE 22:54:46 41° ESE 22:59:59 10° NE
Cosmos 1818 3.8 22:49:40 10° NW 22:55:11 71° NE 22:59:47 15° SE
Okean 2 Rocket 3.6 22:51:46 10° NNW 22:56:06 49° W 22:58:06 28° SSW
Cosmos 1461 3.7 22:59:31 28° SE 23:00:07 30° ESE 23:03:32 10° ENE
Cosmos 2181 Rocket 4.5 22:54:43 10° NNW 23:00:39 50° W 23:04:16 23° SSW
Cosmos 405 Rocket 4.3 22:57:42 10° NW 23:00:46 24° W 23:02:06 20° WSW
ALOS 2 3.5 23:00:31 26° SW 23:02:20 38° W 23:06:28 10° NNW
NOSS 3-2 (A) 3.3 23:01:01 28° S 23:03:43 57° SE 23:09:46 10° NE
Cosmos 1538 Rocket 4.0 22:58:46 10° NNW 23:03:58 69° WSW 23:06:39 29° S
Cosmos 2074 Rocket 4.0 23:02:10 25° SSW 23:05:59 80° W 23:12:16 10° N
Cosmos 1892 3.2 23:04:40 29° SW 23:06:01 44° WNW 23:09:25 10° N
BlueWalker 3 2.9 23:03:30 10° WNW 23:07:08 47° N 23:10:47 10° ENE
Cosmos 1825 2.5 23:06:07 31° SW 23:07:19 47° WNW 23:10:40 10° N
Cosmos 2297 Rocket 3.4 23:07:53 10° WSW 23:13:09 39° NW 23:18:26 10° NNE
NOSS 3-2 (C) 4.1 23:11:04 24° SSE 23:13:10 33° ESE 23:18:28 10° NE
BREEZE-M R/B 4.1 23:11:53 21° SW 23:15:07 55° SE 23:29:14 10° ENE
Meteor 2-11 Rocket 4.4 23:11:34 26° S 23:15:09 85° E 23:21:18 10° N
Cosmos 2219 3.1 23:19:21 24° SSW 23:22:49 89° WNW 23:28:28 10° NNE
Cosmos 1937 Rocket 3.9 23:25:39 27° SSE 23:28:15 51° ESE 23:33:19 10° NNE
Cosmos 923 Rocket 3.9 23:26:07 10° NNW 23:31:25 87° WSW 23:34:38 24° SSE
Cosmos 2263 Rocket 2.1 23:34:56 25° SSW 23:38:16 87° ESE 23:43:52 10° NNE
Cosmos 1898 Rocket 3.4 23:36:29 28° SSW 23:39:18 82° ESE 23:44:30 10° NNE
Orbus 7S? 2.7 23:37:06 10° NW 23:39:46 77° NE 23:43:13 10° ESE
Nadezhda 3 Rocket 4.4 23:35:32 10° NNW 23:41:34 52° W 23:45:12 24° SSW
Okean 1 Rocket 4.5 23:39:33 10° NNW 23:43:11 26° W 23:44:59 20° SW
H-2A R/B 2.4 23:40:17 10° N 23:44:24 53° WNW 23:46:32 26° SW
Cosmos 292 Rocket 4.0 23:45:13 24° SW 23:48:01 65° WNW 23:52:50 10° NNE
Meteor 1-21 Rocket 4.4 23:46:48 24° SSW 23:50:19 65° WNW 23:55:57 10° N
Cosmos 1544 Rocket 3.8 23:46:04 10° N 23:50:30 67° ENE 23:53:11 23° SSE
BREEZE-M DEB (TANK) 3.2 23:48:38 10° WNW 23:49:22 18° W 23:49:22 18° W
Cosmos 2218 Rocket 4.3 23:49:09 21° SSE 23:53:18 62° E 23:59:22 10° NNE
Cosmos 2366 rocket 4.2 23:49:09 22° S 23:53:19 65° E 23:59:28 10° NNE
GEOS 3 Rocket 3.9 23:49:16 10° NE 23:54:19 53° SE 23:57:03 26° SSW
BREEZE-M DEB (TANK) 2.7 23:51:00 10° WNW 23:56:28 36° SW 23:56:55 34° SSW
